Starlink 32083

operational
NORAD ID: 60343 Int'l Des: 2024-136 Owner: SPXS Country: US Constellation: starlink
LEOCIRCULAR

About Starlink 32083

Description loading...

Live Position

Loading 3D Globe...

Upcoming Passes

Altitude History

Altitude vs Time

uPlot chart will show altitude changes over time

Two-Line Element Set

1 60343U 24136Q 25353.66956257 -.00010190 00000-0 -33224-3 0 9996
2 60343 53.1596 87.2803 0000884 72.4368 287.6729 15.30216085 77416
Epoch: Dec 19, 2025 • Age: 9 hours

Current Status

Altitude 475.1 km
Velocity 7.63 km/s
Sub-Earth Point 9.77°N, 18.99°W
Launch Date Aug 2, 2024
Age 1.3 years
Type internet

Technical Details

Classification Payload
Mass 730.00 kg
Dry Mass 700.00 kg
Total Mass 730.00 kg
Length 0.30 m
Diameter 4.10 m
Span 29.00 m
Shape Box + pan
Manufacturer SPXS
Bus Type Starlink V2M
Phase Status In Orbit
Owner/State SPXS/US

Large Constellations

Loading constellations...